Location: Julian California
(33.0790°N, 116.6010°W)
Time: 03:37:25
(UTC-07:00)

Cosmos 1378 - Pass Details

Date: 14 June 2018
Orbit: 494 x 504 km, 82.5° (Epoch: 21 October)

Event Time Altitude Azimuth Distance (km) Brightness Sun altitude
Exits shadow 20:56:44 13° 159° (SSE) 1,517 5.1 -11.4°
Maximum altitude 20:59:44 39° 93° (E) 763 3.6 -11.9°
Drops below altitude 10° 21:03:12 10° 23° (NNE) 1,699 6.0 -12.4°
Sets 21:05:24 0° 16° (NNE) 2,584 7.1 -12.8°
